Station Historical Data
Daily Summary for October 13, 2017 Units:  Metric    English   Both
« Previous Day
Next Day »
Daily Weekly Monthly Yearly Custom
  High: Low: Average:
Temperature: 18 °C 15.2 °C 16.2 °C
Dew Point: 15.9 °C 12.7 °C 14.5 °C
Humidity: 98 % 85 % 90 %
Wind Speed: 8 km/h 0 km/h 0.6 km/h
Wind Gust: 17.7 km/h - -
Wind:- - ESE
Pressure: 1029.3 hPa 1026.3 hPa -
Precipitation: 2.29 mm    
Historical Graphs
 
 
Tabular Data for October 13, 2017
Time Temperature Dew Point Pressure Wind Wind Speed Wind Gust Humidity Rainfall Rate (Hourly)
00:03 15.2 °C 12.9 °C 1028 hPa East 1.6 km/h 9.7 km/h 86 % 0 mm
00:08 15.2 °C 12.7 °C 1028 hPa Calm   9.7 km/h 85 % 0 mm
00:13 15.2 °C 12.7 °C 1028 hPa Calm   9.7 km/h 85 % 0 mm
00:14 15.2 °C 12.7 °C 1028 hPa East 1.6 km/h 9.7 km/h 85 % 0 mm
00:19 15.2 °C 12.7 °C 1028 hPa Calm   11.3 km/h 85 % 0 mm
00:24 15.3 °C 12.8 °C 1028 hPa Calm   11.3 km/h 85 % 0 mm
00:29 15.2 °C 12.7 °C 1028 hPa Calm   11.3 km/h 85 % 0 mm
00:34 15.2 °C 12.7 °C 1028 hPa Calm   11.3 km/h 85 % 0 mm
00:39 15.3 °C 12.8 °C 1028 hPa Calm   8 km/h 85 % 0 mm
00:44 15.3 °C 12.8 °C 1028 hPa Calm   8 km/h 85 % 0 mm
00:49 15.3 °C 12.8 °C 1028 hPa Calm   8 km/h 85 % 0 mm
00:54 15.3 °C 12.8 °C 1028 hPa Calm   8 km/h 85 % 0 mm
00:59 15.3 °C 12.8 °C 1028 hPa Calm   8 km/h 85 % 0 mm
01:04 15.3 °C 12.8 °C 1028 hPa East 3.2 km/h 8 km/h 85 % 0 mm
01:09 15.3 °C 12.8 °C 1028 hPa Calm   11.3 km/h 85 % 0 mm
01:14 15.3 °C 12.9 °C 1028 hPa NNE 1.6 km/h 11.3 km/h 86 % 0 mm
01:19 15.2 °C 12.9 °C 1028 hPa Calm   11.3 km/h 86 % 0 mm
01:24 15.3 °C 12.9 °C 1028 hPa WNW 1.6 km/h 11.3 km/h 86 % 0 mm
01:29 15.2 °C 12.9 °C 1028 hPa Calm   8 km/h 86 % 0 mm
01:34 15.3 °C 12.9 °C 1028 hPa Calm   8 km/h 86 % 0 mm
01:39 15.2 °C 12.9 °C 1028 hPa Calm   8 km/h 86 % 0 mm
01:44 15.2 °C 12.9 °C 1028 hPa Calm   8 km/h 86 % 0 mm
01:49 15.2 °C 12.9 °C 1028 hPa Calm   6.4 km/h 86 % 0 mm
01:54 15.2 °C 12.9 °C 1028 hPa Calm   8 km/h 86 % 0 mm
01:59 15.2 °C 12.9 °C 1028 hPa Calm   8 km/h 86 % 0 mm
02:04 15.2 °C 12.7 °C 1028 hPa Calm   8 km/h 85 % 0 mm
02:09 15.2 °C 12.9 °C 1028 hPa Calm   8 km/h 86 % 0 mm
02:14 15.2 °C 12.9 °C 1028 hPa Calm   6.4 km/h 86 % 0 mm
02:19 15.2 °C 12.9 °C 1028 hPa ENE 4.8 km/h 6.4 km/h 86 % 0 mm
02:24 15.2 °C 12.9 °C 1028 hPa East 4.8 km/h 4.8 km/h 86 % 0 mm
02:29 15.2 °C 12.9 °C 1028 hPa Calm   8 km/h 86 % 0 mm
02:30 15.2 °C 12.9 °C 1028 hPa ESE 1.6 km/h 8 km/h 86 % 0 mm
02:35 15.2 °C 12.9 °C 1028 hPa WNW 3.2 km/h 8 km/h 86 % 0 mm
02:40 15.2 °C 12.9 °C 1028 hPa Calm   8 km/h 86 % 0 mm
02:45 15.2 °C 12.9 °C 1028 hPa Calm   9.7 km/h 86 % 0 mm
02:50 15.2 °C 12.9 °C 1028 hPa Calm   9.7 km/h 86 % 0 mm
02:55 15.3 °C 12.9 °C 1028 hPa Calm   8 km/h 86 % 0 mm
03:00 15.3 °C 12.9 °C 1028 hPa Calm   8 km/h 86 % 0 mm
03:05 15.3 °C 12.9 °C 1027.7 hPa Calm   8 km/h 86 % 0 mm
03:10 15.2 °C 12.9 °C 1027.7 hPa Calm   6.4 km/h 86 % 0 mm
03:15 15.2 °C 12.9 °C 1027.7 hPa Calm   6.4 km/h 86 % 0 mm
03:20 15.2 °C 12.9 °C 1027.7 hPa Calm   9.7 km/h 86 % 0 mm
03:25 15.2 °C 12.9 °C 1027.7 hPa Calm   9.7 km/h 86 % 0 mm
03:30 15.2 °C 12.9 °C 1028 hPa Calm   9.7 km/h 86 % 0 mm
03:35 15.2 °C 12.9 °C 1028 hPa Calm   9.7 km/h 86 % 0 mm
03:40 15.2 °C 12.9 °C 1028 hPa Calm   8 km/h 86 % 0 mm
03:45 15.3 °C 12.9 °C 1028 hPa Calm   8 km/h 86 % 0 mm
03:50 15.3 °C 12.9 °C 1028 hPa Calm   8 km/h 86 % 0 mm
03:55 15.2 °C 12.9 °C 1028 hPa ENE 1.6 km/h 8 km/h 86 % 0 mm
04:00 15.2 °C 13.1 °C 1028 hPa Calm   8 km/h 87 % 0 mm
04:05 15.2 °C 13.1 °C 1028 hPa Calm   8 km/h 87 % 0 mm
04:10 15.2 °C 13.1 °C 1028 hPa Calm   8 km/h 87 % 0 mm
04:15 15.2 °C 13.1 °C 1028 hPa Calm   8 km/h 87 % 0 mm
04:20 15.2 °C 13.1 °C 1028 hPa Calm   8 km/h 87 % 0 mm
04:25 15.2 °C 13.1 °C 1028 hPa Calm   8 km/h 87 % 0 mm
04:30 15.2 °C 13.2 °C 1028 hPa Calm   8 km/h 88 % 0 mm
04:35 15.2 °C 13.2 °C 1028 hPa Calm   8 km/h 88 % 0 mm
04:40 15.2 °C 13.2 °C 1028.3 hPa Calm   3.2 km/h 88 % 0 mm
04:45 15.2 °C 13.2 °C 1028.3 hPa Calm   3.2 km/h 88 % 0 mm
04:50 15.2 °C 13.2 °C 1028 hPa Calm   4.8 km/h 88 % 0 mm
04:55 15.2 °C 13.2 °C 1028 hPa Calm   4.8 km/h 88 % 0 mm
05:00 15.2 °C 13.2 °C 1028 hPa Calm   4.8 km/h 88 % 0 mm
05:05 15.2 °C 13.2 °C 1028 hPa Calm   4.8 km/h 88 % 0 mm
05:10 15.2 °C 13.2 °C 1028 hPa Calm   9.7 km/h 88 % 0 mm
05:15 15.2 °C 13.2 °C 1028 hPa Calm   9.7 km/h 88 % 0 mm
05:20 15.2 °C 13.2 °C 1028 hPa Calm   9.7 km/h 88 % 0 mm
05:25 15.2 °C 13.2 °C 1028 hPa Calm   9.7 km/h 88 % 0 mm
05:30 15.3 °C 13.3 °C 1028.3 hPa ESE 3.2 km/h 9.7 km/h 88 % 0 mm
05:35 15.3 °C 13.3 °C 1028.3 hPa Calm   9.7 km/h 88 % 0 mm
05:40 15.3 °C 13.3 °C 1028.3 hPa Calm   9.7 km/h 88 % 0 mm
05:45 15.3 °C 13.3 °C 1028.3 hPa East 1.6 km/h 9.7 km/h 88 % 0 mm
05:50 15.3 °C 13.3 °C 1028.3 hPa Calm   9.7 km/h 88 % 0 mm
05:55 15.3 °C 13.3 °C 1028.3 hPa Calm   4.8 km/h 88 % 0 mm
06:00 15.3 °C 13.3 °C 1028.3 hPa Calm   4.8 km/h 88 % 0 mm
06:05 15.3 °C 13.3 °C 1028.3 hPa Calm   4.8 km/h 88 % 0 mm
06:10 15.3 °C 13.3 °C 1028.3 hPa Calm   4.8 km/h 88 % 0 mm
06:15 15.4 °C 13.4 °C 1028.3 hPa Calm   9.7 km/h 88 % 0 mm
06:20 15.3 °C 13.3 °C 1028.3 hPa Calm   9.7 km/h 88 % 0 mm
06:25 15.3 °C 13.3 °C 1028.3 hPa East 4.8 km/h 9.7 km/h 88 % 0 mm
06:30 15.3 °C 13.3 °C 1028.7 hPa ENE 1.6 km/h 17.7 km/h 88 % 0 mm
06:35 15.3 °C 13.3 °C 1028.7 hPa SSW 1.6 km/h 17.7 km/h 88 % 0 mm
06:40 15.3 °C 13.3 °C 1028.7 hPa Calm   17.7 km/h 88 % 0 mm
06:45 15.3 °C 13.3 °C 1028.7 hPa Calm   17.7 km/h 88 % 0 mm
06:50 15.3 °C 13.3 °C 1028.7 hPa East 4.8 km/h 14.5 km/h 88 % 0 mm
06:55 15.3 °C 13.3 °C 1028.7 hPa Calm   8 km/h 88 % 0 mm
07:00 15.3 °C 13.3 °C 1028.7 hPa Calm   8 km/h 88 % 0 mm
07:05 15.3 °C 13.3 °C 1028.7 hPa Calm   8 km/h 88 % 0 mm
07:10 15.3 °C 13.3 °C 1028.7 hPa Calm   8 km/h 88 % 0 mm
07:15 15.3 °C 13.4 °C 1028.7 hPa Calm   8 km/h 89 % 0 mm
07:16 15.3 °C 13.4 °C 1028.7 hPa ESE 3.2 km/h 6.4 km/h 89 % 0 mm
07:21 15.3 °C 13.4 °C 1028.7 hPa Calm   12.9 km/h 89 % 0 mm
07:26 15.2 °C 13.4 °C 1028.7 hPa Calm   12.9 km/h 89 % 0 mm
07:31 15.2 °C 13.4 °C 1028.7 hPa Calm   12.9 km/h 89 % 0 mm
07:36 15.2 °C 13.4 °C 1028.7 hPa East 1.6 km/h 12.9 km/h 89 % 0 mm
07:41 15.2 °C 13.4 °C 1028.7 hPa Calm   11.3 km/h 89 % 0 mm
07:46 15.2 °C 13.4 °C 1028.7 hPa Calm   11.3 km/h 89 % 0 mm
07:51 15.3 °C 13.4 °C 1029 hPa Calm   9.7 km/h 89 % 0 mm
07:56 15.2 °C 13.4 °C 1029 hPa Calm   8 km/h 89 % 0 mm
08:01 15.3 °C 13.4 °C 1029 hPa Calm   8 km/h 89 % 0 mm
08:06 15.3 °C 13.4 °C 1029 hPa Calm   6.4 km/h 89 % 0 mm
08:11 15.3 °C 13.4 °C 1029 hPa Calm   6.4 km/h 89 % 0 mm
08:12 15.3 °C 13.4 °C 1029 hPa Calm   6.4 km/h 89 % 0 mm
08:17 15.3 °C 13.4 °C 1029 hPa Calm   4.8 km/h 89 % 0 mm
08:22 15.3 °C 13.5 °C 1029.3 hPa Calm   4.8 km/h 89 % 0 mm
08:27 15.3 °C 13.7 °C 1029 hPa Calm   6.4 km/h 90 % 0 mm
08:32 15.3 °C 13.7 °C 1029.3 hPa Calm   6.4 km/h 90 % 0 mm
08:37 15.3 °C 13.7 °C 1029.3 hPa North 6.4 km/h 11.3 km/h 90 % 0 mm
08:42 15.3 °C 13.6 °C 1029.3 hPa Calm   14.5 km/h 90 % 0 mm
08:47 15.3 °C 13.8 °C 1029.3 hPa Calm   14.5 km/h 91 % 0 mm
08:52 15.3 °C 13.8 °C 1029.3 hPa Calm   14.5 km/h 91 % 0 mm
08:57 15.3 °C 14 °C 1029.3 hPa Calm   12.9 km/h 92 % 0 mm
09:02 15.3 °C 14 °C 1029.3 hPa Calm   4.8 km/h 92 % 0 mm
09:07 15.4 °C 14.1 °C 1029.3 hPa Calm   4.8 km/h 92 % 0 mm
09:12 15.4 °C 14.1 °C 1029.3 hPa Calm   4.8 km/h 92 % 0 mm
09:17 15.4 °C 13.9 °C 1029.3 hPa Calm   4.8 km/h 91 % 0 mm
09:22 15.4 °C 13.9 °C 1029.3 hPa Calm   4.8 km/h 91 % 0 mm
09:27 15.5 °C 14 °C 1029.3 hPa Calm   4.8 km/h 91 % 0 mm
09:32 15.6 °C 14.1 °C 1029.3 hPa Calm   9.7 km/h 91 % 0 mm
09:37 15.6 °C 14.1 °C 1029.3 hPa ESE 1.6 km/h 11.3 km/h 91 % 0 mm
09:42 15.7 °C 14.1 °C 1029.3 hPa ESE 1.6 km/h 17.7 km/h 90 % 0 mm
09:47 15.8 °C 14.2 °C 1029.3 hPa Calm   17.7 km/h 90 % 0 mm
09:52 15.9 °C 14.3 °C 1029.3 hPa Calm   17.7 km/h 90 % 0 mm
09:57 16.1 °C 14.2 °C 1029.3 hPa Calm   17.7 km/h 89 % 0 mm
10:02 16.2 °C 14.4 °C 1029.3 hPa Calm   9.7 km/h 89 % 0 mm
10:07 16.3 °C 14.3 °C 1029.3 hPa ENE 6.4 km/h 17.7 km/h 88 % 0 mm
10:12 16.3 °C 14.3 °C 1029.3 hPa WNW 3.2 km/h 17.7 km/h 88 % 0 mm
10:17 16.3 °C 14.2 °C 1029.3 hPa Calm   17.7 km/h 87 % 0 mm
10:22 16.4 °C 14.3 °C 1029.3 hPa West 6.4 km/h 17.7 km/h 87 % 0 mm
10:27 16.5 °C 14.3 °C 1029.3 hPa Calm   16.1 km/h 87 % 0 mm
10:32 16.6 °C 14.4 °C 1029.3 hPa ENE 3.2 km/h 16.1 km/h 87 % 0 mm
10:37 16.7 °C 14.5 °C 1029.3 hPa Calm   16.1 km/h 87 % 0 mm
10:42 16.7 °C 14.6 °C 1029.3 hPa ESE 1.6 km/h 11.3 km/h 87 % 0 mm
10:47 16.8 °C 14.5 °C 1029.3 hPa West 1.6 km/h 11.3 km/h 86 % 0 mm
10:52 16.8 °C 14.7 °C 1029.3 hPa West 1.6 km/h 8 km/h 87 % 0 mm
10:57 16.8 °C 14.5 °C 1029.3 hPa Calm   16.1 km/h 86 % 0 mm
11:02 16.8 °C 14.5 °C 1029.3 hPa North 1.6 km/h 16.1 km/h 86 % 0 mm
11:07 16.8 °C 14.5 °C 1029.3 hPa Calm   16.1 km/h 86 % 0 mm
11:12 16.8 °C 14.4 °C 1029.3 hPa WNW 8 km/h 16.1 km/h 86 % 0 mm
11:17 16.8 °C 14.6 °C 1029.3 hPa North 3.2 km/h 14.5 km/h 87 % 0 mm
11:22 16.8 °C 14.6 °C 1029 hPa East 3.2 km/h 8 km/h 87 % 0 mm
11:27 16.8 °C 14.5 °C 1029 hPa Calm   12.9 km/h 86 % 0 mm
11:32 16.8 °C 14.7 °C 1029 hPa Calm   12.9 km/h 87 % 0 mm
11:37 16.8 °C 14.7 °C 1029 hPa Calm   16.1 km/h 87 % 0 mm
11:42 16.9 °C 14.7 °C 1029 hPa Calm   16.1 km/h 87 % 0 mm
11:47 16.9 °C 14.8 °C 1029 hPa ESE 1.6 km/h 16.1 km/h 87 % 0 mm
11:52 17 °C 14.8 °C 1029 hPa ENE 1.6 km/h 16.1 km/h 87 % 0 mm
11:57 16.9 °C 14.6 °C 1029 hPa East 3.2 km/h 8 km/h 86 % 0 mm
12:02 16.9 °C 14.8 °C 1029 hPa Calm   8 km/h 87 % 0 mm
12:07 16.9 °C 14.8 °C 1029 hPa Calm   8 km/h 87 % 0 mm
12:12 16.9 °C 14.8 °C 1029 hPa Calm   8 km/h 87 % 0 mm
12:17 16.9 °C 14.8 °C 1029 hPa ESE 1.6 km/h 6.4 km/h 87 % 0 mm
12:22 16.9 °C 14.8 °C 1029 hPa Calm   6.4 km/h 87 % 0 mm
12:23 17 °C 15 °C 1029 hPa Calm   6.4 km/h 88 % 0 mm
12:28 16.9 °C 14.8 °C 1028.7 hPa Calm   6.4 km/h 87 % 0 mm
12:33 16.9 °C 14.9 °C 1028.7 hPa Calm   11.3 km/h 88 % 0 mm
12:38 16.9 °C 14.9 °C 1028.7 hPa Calm   11.3 km/h 88 % 0 mm
12:43 17 °C 15 °C 1028.7 hPa East 1.6 km/h 11.3 km/h 88 % 0 mm
12:48 17 °C 14.8 °C 1028.3 hPa Calm   9.7 km/h 87 % 0 mm
12:53 17.1 °C 14.9 °C 1028.3 hPa Calm   9.7 km/h 87 % 0 mm
12:58 17.1 °C 14.9 °C 1028.3 hPa Calm   9.7 km/h 87 % 0 mm
13:03 17.2 °C 15.2 °C 1028.3 hPa Calm   8 km/h 88 % 0 mm
13:08 17.2 °C 15.2 °C 1028 hPa ENE 1.6 km/h 8 km/h 88 % 0 mm
13:13 17.2 °C 15.1 °C 1028 hPa Calm   8 km/h 87 % 0 mm
13:18 17.3 °C 15.3 °C 1028 hPa Calm   8 km/h 88 % 0 mm
13:23 17.4 °C 15.4 °C 1028 hPa Calm   8 km/h 88 % 0 mm
13:28 17.4 °C 15.4 °C 1028 hPa Calm   8 km/h 88 % 0 mm
13:33 17.4 °C 15.3 °C 1027.7 hPa Calm   6.4 km/h 87 % 0 mm
13:38 17.5 °C 15.3 °C 1027.7 hPa East 1.6 km/h 8 km/h 87 % 0 mm
13:43 17.6 °C 15.4 °C 1027.7 hPa Calm   8 km/h 87 % 0 mm
13:48 17.6 °C 15.4 °C 1027.7 hPa ENE 1.6 km/h 8 km/h 87 % 0 mm
13:53 17.6 °C 15.4 °C 1027.7 hPa WNW 1.6 km/h 6.4 km/h 87 % 0 mm
13:58 17.6 °C 15.4 °C 1027.7 hPa Calm   6.4 km/h 87 % 0 mm
14:03 17.7 °C 15.5 °C 1027.7 hPa Calm   6.4 km/h 87 % 0 mm
14:08 17.7 °C 15.6 °C 1027.7 hPa ESE 4.8 km/h 6.4 km/h 87 % 0 mm
14:13 17.7 °C 15.3 °C 1027.3 hPa Calm   12.9 km/h 86 % 0 mm
14:18 17.8 °C 15.6 °C 1027.3 hPa ESE 1.6 km/h 12.9 km/h 87 % 0 mm
14:23 17.8 °C 15.6 °C 1027.3 hPa Calm   12.9 km/h 87 % 0 mm
14:28 17.9 °C 15.7 °C 1027.3 hPa Calm   12.9 km/h 87 % 0 mm
14:33 17.9 °C 15.6 °C 1027.3 hPa Calm   9.7 km/h 86 % 0 mm
14:38 17.9 °C 15.5 °C 1027 hPa Calm   6.4 km/h 86 % 0 mm
14:43 17.9 °C 15.5 °C 1027.3 hPa Calm   4.8 km/h 86 % 0 mm
14:48 17.9 °C 15.5 °C 1027 hPa Calm   4.8 km/h 86 % 0 mm
14:53 17.9 °C 15.7 °C 1027 hPa Calm   3.2 km/h 87 % 0 mm
14:58 17.9 °C 15.5 °C 1027 hPa Calm   3.2 km/h 86 % 0 mm
15:03 17.9 °C 15.7 °C 1027 hPa NE 1.6 km/h 3.2 km/h 87 % 0 mm
15:08 17.9 °C 15.7 °C 1027 hPa Calm   4.8 km/h 87 % 0 mm
15:13 18 °C 15.8 °C 1027 hPa Calm   4.8 km/h 87 % 0 mm
15:18 18 °C 15.8 °C 1027 hPa Calm   4.8 km/h 87 % 0 mm
15:23 18 °C 15.6 °C 1027 hPa Calm   4.8 km/h 86 % 0 mm
15:28 18 °C 15.8 °C 1027 hPa ENE 3.2 km/h 4.8 km/h 87 % 0 mm
15:33 18 °C 15.6 °C 1027 hPa Calm   4.8 km/h 86 % 0 mm
15:38 17.9 °C 15.7 °C 1027 hPa WNW 1.6 km/h 4.8 km/h 87 % 0 mm
15:43 17.9 °C 15.7 °C 1027 hPa Calm   4.8 km/h 87 % 0 mm
15:48 17.9 °C 15.7 °C 1027 hPa Calm   4.8 km/h 87 % 0 mm
15:53 17.9 °C 15.7 °C 1027 hPa WNW 3.2 km/h 3.2 km/h 87 % 0 mm
15:54 17.9 °C 15.7 °C 1027 hPa Calm   3.2 km/h 87 % 0 mm
15:59 17.8 °C 15.6 °C 1027 hPa Calm   3.2 km/h 87 % 0 mm
16:04 17.8 °C 15.6 °C 1026.6 hPa Calm   4.8 km/h 87 % 0 mm
16:09 17.8 °C 15.6 °C 1026.6 hPa WNW 1.6 km/h 4.8 km/h 87 % 0 mm
16:14 17.8 °C 15.6 °C 1026.6 hPa Calm   8 km/h 87 % 0 mm
16:19 17.8 °C 15.6 °C 1026.6 hPa Calm   8 km/h 87 % 0 mm
16:24 17.7 °C 15.7 °C 1026.6 hPa Calm   6.4 km/h 88 % 0 mm
16:29 17.7 °C 15.7 °C 1026.6 hPa Calm   8 km/h 88 % 0 mm
16:34 17.6 °C 15.6 °C 1026.6 hPa Calm   9.7 km/h 88 % 0 mm
16:39 17.6 °C 15.6 °C 1026.6 hPa Calm   9.7 km/h 88 % 0 mm
16:44 17.5 °C 15.5 °C 1026.6 hPa Calm   9.7 km/h 88 % 0 mm
16:49 17.4 °C 15.6 °C 1026.6 hPa Calm   6.4 km/h 89 % 0 mm
16:54 17.4 °C 15.6 °C 1026.6 hPa Calm   6.4 km/h 89 % 0 mm
16:59 17.4 °C 15.6 °C 1026.6 hPa Calm   6.4 km/h 89 % 0 mm
17:04 17.4 °C 15.7 °C 1026.6 hPa NW 3.2 km/h 6.4 km/h 90 % 0 mm
17:09 17.3 °C 15.4 °C 1026.6 hPa Calm   4.8 km/h 89 % 0 mm
17:14 17.2 °C 15.6 °C 1026.6 hPa Calm   4.8 km/h 90 % 0 mm
17:19 17.2 °C 15.6 °C 1026.6 hPa Calm   4.8 km/h 90 % 0 mm
17:24 17.2 °C 15.7 °C 1026.6 hPa Calm   4.8 km/h 91 % 0 mm
17:29 17.1 °C 15.6 °C 1026.6 hPa ENE 1.6 km/h 4.8 km/h 91 % 0 mm
17:34 17.1 °C 15.6 °C 1026.6 hPa WNW 1.6 km/h 4.8 km/h 91 % 0 mm
17:39 16.9 °C 15.6 °C 1026.3 hPa Calm   4.8 km/h 92 % 0 mm
17:44 16.9 °C 15.7 °C 1026.3 hPa Calm   4.8 km/h 93 % 0 mm
17:49 16.8 °C 15.7 °C 1026.3 hPa Calm   4.8 km/h 93 % 0 mm
17:54 16.7 °C 15.6 °C 1026.6 hPa Calm   4.8 km/h 93 % 0 mm
17:59 16.7 °C 15.7 °C 1026.6 hPa Calm   4.8 km/h 94 % 0 mm
18:04 16.6 °C 15.6 °C 1026.6 hPa Calm   4.8 km/h 94 % 0 mm
18:06 16.6 °C 15.6 °C 1026.6 hPa Calm   4.8 km/h 94 % 0 mm
18:11 16.6 °C 15.6 °C 1026.6 hPa Calm   3.2 km/h 94 % 0.25 mm
18:16 16.6 °C 15.6 °C 1026.6 hPa Calm   3.2 km/h 94 % 0.25 mm
18:21 16.5 °C 15.7 °C 1026.6 hPa Calm   3.2 km/h 95 % 0.25 mm
18:26 16.4 °C 15.6 °C 1026.6 hPa North 3.2 km/h 6.4 km/h 95 % 0.51 mm
18:31 16.4 °C 15.6 °C 1026.6 hPa Calm   6.4 km/h 95 % 0.51 mm
18:36 16.3 °C 15.5 °C 1026.6 hPa Calm   6.4 km/h 95 % 0.51 mm
18:41 16.3 °C 15.5 °C 1026.6 hPa Calm   6.4 km/h 95 % 0.51 mm
18:46 16.3 °C 15.6 °C 1026.6 hPa North 3.2 km/h 6.4 km/h 96 % 0.51 mm
18:51 16.2 °C 15.6 °C 1026.6 hPa Calm   4.8 km/h 96 % 0.76 mm
18:56 16.2 °C 15.6 °C 1026.6 hPa Calm   4.8 km/h 96 % 0.76 mm
19:01 16.2 °C 15.5 °C 1026.6 hPa Calm   4.8 km/h 96 % 0.76 mm
19:06 16.2 °C 15.5 °C 1026.6 hPa Calm   4.8 km/h 96 % 0.51 mm
19:11 16.2 °C 15.5 °C 1026.6 hPa Calm   4.8 km/h 96 % 0.51 mm
19:16 16.2 °C 15.5 °C 1026.6 hPa Calm   4.8 km/h 96 % 0.51 mm
19:21 16.2 °C 15.5 °C 1026.6 hPa North 1.6 km/h 3.2 km/h 96 % 0.51 mm
19:26 16.1 °C 15.4 °C 1027 hPa Calm   3.2 km/h 96 % 0.25 mm
19:31 16.2 °C 15.5 °C 1027 hPa Calm   3.2 km/h 96 % 0.51 mm
19:36 16.2 °C 15.7 °C 1027 hPa Calm   3.2 km/h 97 % 0.51 mm
19:37 16.2 °C 15.7 °C 1027 hPa Calm   3.2 km/h 97 % 0.51 mm
19:42 16.1 °C 15.6 °C 1027 hPa Calm   3.2 km/h 97 % 0.51 mm
19:47 16.2 °C 15.7 °C 1026.6 hPa Calm   4.8 km/h 97 % 0.25 mm
19:52 16.2 °C 15.7 °C 1026.6 hPa North 3.2 km/h 4.8 km/h 97 % 0.25 mm
19:57 16.2 °C 15.7 °C 1026.6 hPa Calm   4.8 km/h 97 % 0.25 mm
20:02 16.2 °C 15.7 °C 1026.6 hPa North 1.6 km/h 4.8 km/h 97 % 0.25 mm
20:07 16.1 °C 15.6 °C 1026.6 hPa Calm   4.8 km/h 97 % 0.25 mm
20:08 16.1 °C 15.6 °C 1026.6 hPa North 3.2 km/h 4.8 km/h 97 % 0.25 mm
20:13 16.1 °C 15.6 °C 1026.6 hPa Calm   4.8 km/h 97 % 0.51 mm
20:18 16.1 °C 15.6 °C 1026.6 hPa Calm   4.8 km/h 97 % 0.51 mm
20:23 16.1 °C 15.6 °C 1026.6 hPa Calm   4.8 km/h 97 % 0.51 mm
20:28 16.1 °C 15.6 °C 1026.6 hPa Calm   4.8 km/h 97 % 0.51 mm
20:33 16.1 °C 15.6 °C 1026.6 hPa Calm   4.8 km/h 97 % 0.51 mm
20:38 16.1 °C 15.6 °C 1026.6 hPa Calm   4.8 km/h 97 % 0.51 mm
20:43 16.1 °C 15.6 °C 1026.6 hPa North 3.2 km/h 4.8 km/h 97 % 0.51 mm
20:48 16.1 °C 15.6 °C 1026.6 hPa Calm   4.8 km/h 97 % 0.51 mm
20:53 16.1 °C 15.6 °C 1026.6 hPa Calm   4.8 km/h 97 % 0.51 mm
20:58 16.1 °C 15.6 °C 1026.6 hPa Calm   4.8 km/h 97 % 0.51 mm
21:03 16.1 °C 15.7 °C 1026.6 hPa Calm   4.8 km/h 98 % 0.51 mm
21:08 16.1 °C 15.7 °C 1026.3 hPa Calm   3.2 km/h 98 % 0.76 mm
21:13 16.1 °C 15.7 °C 1026.3 hPa Calm   3.2 km/h 98 % 0.51 mm
21:18 16.1 °C 15.7 °C 1026.6 hPa Calm   3.2 km/h 98 % 0.51 mm
21:23 16.1 °C 15.7 °C 1026.6 hPa Calm   3.2 km/h 98 % 0.51 mm
21:28 16.1 °C 15.8 °C 1026.6 hPa North 1.6 km/h 3.2 km/h 98 % 0.25 mm
21:33 16.1 °C 15.8 °C 1026.3 hPa Calm   4.8 km/h 98 % 0.25 mm
21:38 16.1 °C 15.8 °C 1026.6 hPa Calm   4.8 km/h 98 % 0.25 mm
21:43 16.1 °C 15.8 °C 1026.6 hPa Calm   4.8 km/h 98 % 0.25 mm
21:48 16.1 °C 15.8 °C 1026.6 hPa Calm   6.4 km/h 98 % 0.25 mm
21:53 16.1 °C 15.7 °C 1026.6 hPa North 3.2 km/h 6.4 km/h 98 % 0.25 mm
21:58 16.1 °C 15.7 °C 1026.6 hPa Calm   6.4 km/h 98 % 0.25 mm
22:03 16.1 °C 15.7 °C 1026.6 hPa Calm   6.4 km/h 98 % 0.25 mm
22:08 16.1 °C 15.8 °C 1026.6 hPa Calm   6.4 km/h 98 % 0 mm
22:13 16.1 °C 15.8 °C 1026.6 hPa Calm   4.8 km/h 98 % 0 mm
22:18 16.1 °C 15.8 °C 1026.6 hPa North 4.8 km/h 4.8 km/h 98 % 0 mm
22:23 16.1 °C 15.8 °C 1026.6 hPa Calm   6.4 km/h 98 % 0.25 mm
22:28 16.1 °C 15.8 °C 1026.6 hPa Calm   6.4 km/h 98 % 0.25 mm
22:33 16.2 °C 15.8 °C 1026.6 hPa Calm   6.4 km/h 98 % 0.25 mm
22:38 16.2 °C 15.8 °C 1026.6 hPa Calm   4.8 km/h 98 % 0.25 mm
22:43 16.2 °C 15.8 °C 1026.6 hPa Calm   3.2 km/h 98 % 0.25 mm
22:48 16.2 °C 15.8 °C 1026.6 hPa Calm   3.2 km/h 98 % 0.25 mm
22:53 16.2 °C 15.8 °C 1026.6 hPa Calm   3.2 km/h 98 % 0.25 mm
22:58 16.2 °C 15.8 °C 1026.3 hPa Calm   3.2 km/h 98 % 0.25 mm
23:03 16.2 °C 15.8 °C 1026.3 hPa Calm   4.8 km/h 98 % 0.25 mm
23:08 16.2 °C 15.9 °C 1026.3 hPa Calm   4.8 km/h 98 % 0.25 mm
23:14 16.2 °C 15.9 °C 1026.3 hPa Calm   4.8 km/h 98 % 0.25 mm
23:19 16.2 °C 15.9 °C 1026.3 hPa Calm   4.8 km/h 98 % 0.51 mm
23:21 16.2 °C 15.9 °C 1026.3 hPa Calm   4.8 km/h 98 % 0.25 mm
23:26 16.2 °C 15.9 °C 1026.3 hPa Calm   3.2 km/h 98 % 0.25 mm
23:31 16.2 °C 15.9 °C 1026.3 hPa Calm   3.2 km/h 98 % 0.25 mm
23:36 16.2 °C 15.9 °C 1026.3 hPa Calm   6.4 km/h 98 % 0.25 mm
23:41 16.2 °C 15.9 °C 1026.3 hPa North 4.8 km/h 6.4 km/h 98 % 0.25 mm
23:46 16.2 °C 15.9 °C 1026.3 hPa Calm   6.4 km/h 98 % 0.25 mm
23:51 16.2 °C 15.9 °C 1026.3 hPa Calm   4.8 km/h 98 % 0.25 mm
23:56 16.3 °C 15.9 °C 1026.3 hPa North 3.2 km/h 4.8 km/h 98 % 0.25 mm
MarylandWx.com
Compliments of Weather Underground - 6.75 mb